Home > Weather > Green Bay > Past weeks

Flag for U.S.A. Weather for the Past 2 Weeks in Green Bay, Wisconsin, U.S.A.

Now
16 °F

Light snow. Overcast.


Feels Like: 4 °F
Forecast: 11 / 20 °F
Wind: 10 mph from Northwest

Location: Austin Straubel International Airport

Current Time: Feb 9, 2016 at 2:42:03 AM

Latest Report: Feb 9, 2016 at 1:53 AM


Visibility: 3 mi

Pressure: 29.79 "Hg

Humidity: 80%

Dew point: 11 °F

Location of Green BayLocation

Historic Weather in Green Bay — Graph

°F

Green Bay Temperature Yesterday

Maximum temperature yesterday: 35 °F (at 12:53 AM)
Minimum temperature yesterday: 18 °F (at 11:53 PM)
Average temperature yesterday: 29 °F

High & Low Weather Summary for the Past Weeks

 TemperatureHumidityPressure
High40 °F (Feb 7, 12:53 PM)100% (Feb 2, 12:53 AM)30.38 "Hg (Feb 2, 12:53 AM)
Low0 °F (Jan 29, 7:53 AM)58% (Jan 28, 4:53 PM)29.48 "Hg (Jan 28, 4:53 AM)
Average28 °F81%29.86 "Hg
* Reported Jan 25 12:01 AM — Feb 9 12:53 AM, Green Bay, Weather by CustomWeather, © 2016

Note: Actual official high and low records may vary slightly from our data, if they occured in-between our weather recording intervals... More about our weather records

Advertising

Green Bay Weather History for the Previous 24 Hours

 ConditionsComfort  
Time TempWeatherWind HumidityBarometerVisibility
12:53 AM
Tue, Feb 9
17 °FLight snow. Overcast.12 mph74%29.78 "Hg5 mi
11:53 PM
Mon, Feb 8
18 °FOvercast.12 mph71%29.78 "Hg10 mi
10:53 PM19 °FOvercast.14 mph71%29.78 "Hg10 mi
9:53 PM20 °FLight snow. Overcast.12 mph82%29.78 "Hg9 mi
8:53 PM21 °FLight snow. Overcast.12 mph81%29.78 "Hg5 mi
7:53 PM24 °FLight snow. Ice fog.13 mph84%29.77 "Hg4 mi
6:53 PM25 °FLight snow. Ice fog.12 mph85%29.76 "Hg2 mi
5:53 PM26 °FLight snow. Ice fog.9 mph88%29.75 "Hg4 mi
4:53 PM27 °FLight snow. Mostly cloudy.8 mph85%29.73 "Hg7 mi
3:57 PM27 °FLight snow. Mostly cloudy.10 mph89%29.69 "Hg1 mi
3:04 PM29 °FLight snow. Mostly cloudy.14 mph75%29.67 "Hg3 mi
2:57 PM29 °FLight snow. Mostly cloudy.13 mph79%29.67 "Hg1 mi
1:53 PM30 °FLight snow. Ice fog.9 mph85%29.67 "Hg2 mi
12:57 PM31 °FLight snow. Ice fog.9 mph89%29.63 "Hg1 mi
11:53 AM32 °FLight snow. Overcast.10 mph79%29.65 "Hg2 mi
10:53 AM31 °FLight snow. Overcast.12 mph79%29.66 "Hg9 mi
9:53 AM31 °FLight snow. Overcast.9 mph79%29.65 "Hg9 mi
8:53 AM31 °FOvercast.8 mph79%29.62 "Hg10 mi
7:53 AM30 °FLight snow. Overcast.10 mph89%29.61 "Hg8 mi
6:53 AM31 °FMostly cloudy.12 mph82%29.60 "Hg10 mi
5:53 AM32 °FOvercast.8 mph82%29.59 "Hg10 mi
4:53 AM33 °FOvercast.7 mph82%29.58 "Hg9 mi
4:00 AM33 °FLight snow. Mostly cloudy.7 mph88%29.55 "Hg9 mi
2:53 AM34 °FOvercast.3 mph82%29.57 "Hg10 mi
Weather by CustomWeather, © 2016

See weather overviewHow to use our weather pages